TeikyoSat 4
1 49396U 21102B   25302.49044043  .00002944  00000-0  19320-3 0  9994
2 49396  97.3964 335.7456 0012671  15.1390 345.0216 15.08340239217938
Z-Sat
1 49399U 21102E   25302.49134758  .00006147  00000-0  32405-3 0  9998
2 49399  97.3649 339.7686 0016699 337.0105  23.0379 15.15812462218466
KOSEN 1
1 49402U 21102H   25302.35675664  .00010602  00000-0  45834-3 0  9995
2 49402  97.3541 344.1870 0013537 305.9425  54.0555 15.22561676218842
HO-113
1 50466U 21131B   25302.49062300  .00000891  00000-0  29087-3 0  9992
2 50466  98.5072  31.1348 0005171  77.0775 283.0991 14.41019190201882
SNUGLITE 2
1 52899U 22065F   25302.36901916  .00001911  00000-0  37657-3 0  9998
2 52899  98.1894  83.1681 0008076  36.0531 324.1214 14.63646087177221
UmKA 1 (RS40S)
1 57172U 23091G   25302.43728722  .00009537  00000-0  48100-3 0  9994
2 57172  97.5407 357.1061 0013353 197.3057 162.7723 15.17276045128979
CubeBel-2 (EU11S)
1 57175U 23091K   25302.44447898  .00015025  00000-0  65045-3 0  9996
2 57175  97.5403 359.2287 0010877 200.2540 159.8266 15.22463442129111
ENSO
1 58470U 23185J   25302.54637538  .00663867  19365-3  15118-2 0  9997
2 58470  97.3487  24.6042 0007633 266.5468  93.4936 15.97435759107274
SONATE-2
1 59112U 24043Q   25302.37275397  .00031553  00000-0  74109-3 0  9997
2 59112  97.5306  77.0865 0009275 328.8627  31.2069 15.41923372 92135
MO-122
1 60209U 24125G   25302.53559911  .00033177  00000-0  75770-3 0  9991
2 60209  97.2588 152.9798 0016036 352.1997   7.8999 15.42659932 73784
GRBBeta
1 60237U 24128C   25302.35238128  .00006232  00000-0  44666-3 0  9991
2 60237  61.9909 304.7599 0057046  87.1574 273.6045 15.04104140 71516
Curium One
1 60242U 24128H   25302.37800056  .00011537  00000-0  73753-3 0  9997
2 60242  61.9805 300.5343 0056957  83.6777 277.0799 15.07695777 71590
ROBUSTA-3A
1 60243U 24128J   25302.42974166  .00011073  00000-0  72029-3 0  9998
2 60243  61.9878 301.7006 0056791  81.2097 279.5421 15.07099248 71584
CatSat
1 60246U 24125J   25302.31474149  .00039812  00000-0  10938-2 0  9993
2 60246  97.2402 150.2906 0035654 309.8638  49.9471 15.36461269 71697
HYPERVIEW-1G (RS66S)
1 61772U 24199AP  25302.52152345  .00044586  00000-0  99582-3 0  9990
2 61772  97.3269 171.5408 0013361  48.1704 312.0683 15.43305282 98783
AO-123
1 61781U 24199AY  25302.56442935  .00012346  00000-0  41651-3 0  9994
2 61781  97.3302 168.5261 0016794  57.1931 303.0924 15.30708723 98588
ZIMSAT 2
1 61783U 24199BA  25302.53285942  .00108747  00000-0  14604-2 0  9994
2 61783  97.3193 173.8572 0011357  45.2762 314.9416 15.57479652102096
HADES-R (SO-124)
1 62690U 25009CK  25302.19931519  .00117991  00000-0  24465-2 0  9990
2 62690  97.3956  23.5872 0002744 282.5255  77.5687 15.45283145 43877
HYDRA-T
1 62692U 25009CM  25302.21100580  .00120445  00000-0  24334-2 0  9994
2 62692  97.3963  23.7259 0003113 279.1626  80.9271 15.46034537 43881
JINJUSat 1B
1 63210U 25052A   25302.18632719  .00021411  00000-0  86782-3 0  9998
2 63210  97.4211 194.6833 0004044 149.1445 211.0031 15.24660079 34793
NUSHSAT 1
1 63211U 25052B   25302.14210662  .00022183  00000-0  87953-3 0  9992
2 63211  97.4196 194.7095 0003818 152.5788 207.5652 15.25391212 34793
TEVEL2-4
1 63213U 25052D   25302.45365505  .00021830  00000-0  87889-3 0  9991
2 63213  97.4118 194.6582 0002457 155.1310 205.0047 15.24885180 34834
TEVEL2-5
1 63214U 25052E   25302.45728992  .00021590  00000-0  87066-3 0  9995
2 63214  97.4115 194.6540 0002481 156.6565 203.4786 15.24832740 34837
TEVEL2-6
1 63215U 25052F   25302.20071757  .00022410  00000-0  90497-3 0  9993
2 63215  97.4116 194.3904 0002433 157.6812 202.4532 15.24778023 34799
TEVEL2-1
1 63217U 25052H   25302.49705780  .00020269  00000-0  82581-3 0  9991
2 63217  97.4093 194.5305 0001946 172.5189 187.6077 15.24501874 34834
TEVEL2-3
1 63218U 25052J   25302.23423057  .00022301  00000-0  90788-3 0  9995
2 63218  97.4095 194.2737 0001972 176.7879 183.3371 15.24508402 34793
TEVEL2-2
1 63219U 25052K   25302.43220058  .00021744  00000-0  88556-3 0  9994
2 63219  97.4094 194.4663 0001932 173.8433 186.2829 15.24500067 34826
TEVEL2-9
1 63237U 25052AD  25302.41907113  .00020535  00000-0  87132-3 0  9992
2 63237  97.4155 194.2190 0005186 228.9342 131.1447 15.23117299 34794
TEVEL2-7
1 63238U 25052AE  25302.42907832  .00020362  00000-0  86701-3 0  9991
2 63238  97.4158 194.2111 0005236 229.2079 130.8704 15.22998806 34790
TEVEL2-8
1 63239U 25052AF  25302.43392867  .00020737  00000-0  88363-3 0  9991
2 63239  97.4155 194.2024 0005256 229.9206 130.1570 15.22970677 34792
HYDRA-W
1 63490U 25052BL  25302.18836834  .00071165  00000-0  21354-2 0  9996
2 63490  97.4089 195.5783 0005998 213.9172 146.1688 15.34174340 34873
HADES-ICM (SO-125)
1 63492U 25052BN  25302.20334933  .00064306  00000-0  20073-2 0  9990
2 63492  97.4101 195.4236 0006224 224.3559 135.7185 15.32949651 34868
Dragonfly
1 65729U 98067XH  25302.41819524  .00104205  00000-0  13038-2 0  9994
2 65729  51.6318   0.3294 0003083  53.6299 306.4978 15.58973793  6225
RSP-03
1 65732U 98067XL  25302.49285889  .00084090  00000-0  10925-2 0  9998
2 65732  51.6330   0.0780 0005343  30.7872 329.3433 15.58061180  6244
GHS-01
1 65733U 98067XM  25302.41125611  .00114044  00000-0  13914-2 0  9991
2 65733  51.6329   0.2847 0003522  49.9737 310.1564 15.59592909  6239
BOTAN
1 65942U 98067XP  25302.26518097  .00081619  00000-0  12539-2 0  9993
2 65942  51.6330   2.3057 0004485 349.8237  10.2662 15.53535995  2931
